SCDASCAR

Guest
Details From SCDA - DIEGO ARACENA INTL
To SCAR - CHACALLUTA
Flight Number -
Tags generated
Created
Modified
Stats Distance 132 nm / 244 km
Max Altitude 12,200 ft / 3,719 m
Waypoints 4
Social Downloads 16
Likes 0
Share

Download

Looking for another format? Having issues loading an existing format? Contact us
Advertisement - Login to hide

Notes

Basic altitude profile: - Ascent Rate: 2000ft/min - Ascent Speed: 250kts - Cruise Altitude: 20000ft - Cruise Speed: 320kts - Descent Rate: 1500ft/min - Descent Speed: 250kts Options: - Use NATs: yes - Use PACOTS: yes - Use low airways: yes - Use high airways: yes

Route

SCDA CAMAR VW200 ARI SCAR

ID Type Via Altitude (ft/m) Position (lat/lon) Dist (leg/tot) Name
O SCDA APT - 0 / 0 -20.53523 / -70.18128 - / 0 nm DIEGO ARACENA INTL
CAMAR FIX - 12,200 / 3,719 -19.37444 / -70.25972 69 / 69 nm
ARI VOR VW200 (AWY-LO) 8,000 / 2,438 -18.36944 / -70.34639 60 / 130 nm ARICA VOR-DME
O SCAR APT - 0 / 0 -18.34853 / -70.33874 1 / 131 nm CHACALLUTA

Altitude Profile

Advertisement - Login to hide

SCDA

Details ICAO SCDA (IQQ)
Name Diego Aracena
Region Chile
Timezone America/Santiago (UTC-4.0)
Stats Elevation 154 ft / 47 m (AMSL)
Location -20.535200° -70.181300°
Runways 1
Magnetic Variation 5.713° W

METAR

SCDA 192200Z 20017KT CAVOK 18/12 Q1016

Decode

TAF

TAF SCDA 191630Z 1918/2018 23012KT CAVOK TX19/1918Z TN12/2010Z BECMG 2000/2002 17004KT BECMG 2006/2008 BKN030 BECMG 2014/2016 21012KT CAVOK

Decode

Departure Runways

ID Width Length Bearing (true/mag) Surface Threshold Overrun Markings Lighting
01 148 ft / 45 m 11,001 ft / 3,353 m 2.90° / 8.61° ASPHALT 0 ft / 0 m 617 ft / 188 m PREC-APP CENTERLINE EDGE THRESHOLD ALSF-II TDZ REIL-OMNI
19 148 ft / 45 m 11,001 ft / 3,353 m 182.90° / 188.61° ASPHALT 0 ft / 0 m 200 ft / 61 m APP CENTERLINE EDGE THRESHOLD ALSF-II TDZ REIL-OMNI

SCAR

Details ICAO SCAR (ARI)
Name CHACALLUTA
Region Chile
Timezone America/Santiago (UTC-4.0)
Stats Elevation 166 ft / 51 m (AMSL)
Location -18.348500° -70.338700°
Runways 1
Magnetic Variation 6.340° W

METAR

SCAR 192200Z 20007KT CAVOK 18/14 Q1016

Decode

TAF

TAF SCAR 191630Z 1918/2018 21010KT CAVOK TX19/1918Z TN13/2010Z BECMG 1923/2001 08004KT BECMG 1906/1908 OVC020 BECMG 2015/2017 21010KT SCT022

Decode

Destination Runways

ID Width Length Bearing (true/mag) Surface Threshold Overrun Markings Lighting
02 148 ft / 45 m 7,149 ft / 2,179 m 19.19° / 25.53° ASPHALT 0 ft / 0 m 197 ft / 60 m APP EDGE THRESHOLD MALS
20 148 ft / 45 m 7,149 ft / 2,179 m 199.19° / 205.53° ASPHALT 0 ft / 0 m 197 ft / 60 m APP EDGE THRESHOLD REIL-OMNI

Popular Alternatives